Millinocket, ME

4:51 PM EDT on March 28, 2017 (GMT -0400)
Millinocket Municipal

Weather History for KMLT - March, 2013

Change the Weather History Date:

Sunday, March 24, 2013

  Actual Average Record
Temperature  
Mean Temperature 33 °F 31 °F  
Max Temperature 43 °F 40 °F 67 °F (1979)
Min Temperature 23 °F 21 °F -10 °F (1932)
Degree Days  
Heating Degree Days 32 34  
Month to date heating degree days 823 916  
Since 1 July heating degree days 6374 6968  
Cooling Degree Days 0 0  
Month to date cooling degree days 0 0  
Year to date cooling degree days 0 0  
Moisture  
Dew Point 25 °F    
Average Humidity 67    
Maximum Humidity 89    
Minimum Humidity 45    
Precipitation  
Precipitation T in 0.12 in 1.11 in (1903)
Month to date precipitation 1.35 2.21  
Year to date precipitation 4.78 7.32  
Sea Level Pressure  
Sea Level Pressure 29.70 in    
Wind  
Wind Speed 7 mph (NW)    
Max Wind Speed 18 mph    
Max Gust Speed 25 mph    
Visibility 9 miles    
Events Snow    
T = Trace of Precipitation, MM = Missing Value Source: NWS Daily Summary

Daily Weather History Graph

Daily Weather History Graph

Search for Another Location

Airport or City:

Trip Planner

Search our weather history database for the weather conditions in past years. The results will help you decide how hot, cold, wet, or windy it might be!

Date:

Astronomy

Mar. 24, 2013 Rise Set
Actual Time 6:29 AM EDT 6:52 PM EDT
Civil Twilight 6:00 AM EDT 7:22 PM EDT
Nautical Twilight 5:25 AM EDT 7:57 PM EDT
Astronomical Twilight 4:48 AM EDT 8:34 PM EDT
Moon 4:11 PM EDT (3/24) 4:45 AM EDT (3/24)
Length of Visible Light 13h 22m
Length of Day
12h 23m
Waxing Gibbous, 91% of the Moon is Illuminated
Mar 24
Waxing Gibbous
Mar 27
Full
Apr 3
Last Quarter
Apr 10
New
Apr 18
First Quarter

Hourly Weather History & Observations

Time (EDT) Temp. Windchill Dew Point Humidity Pressure Visibility Wind Dir Wind Speed Gust Speed Precip Events Conditions
12:53 AM 33.1 °F 23.4 °F 25.0 °F 72% 29.55 in 10.0 mi NW 13.8 mph 25.3 mph N/A   Mostly Cloudy
1:53 AM 32.0 °F 27.5 °F 24.1 °F 73% 29.58 in 10.0 mi WNW 4.6 mph - N/A   Partly Cloudy
2:53 AM 30.9 °F 24.3 °F 23.0 °F 72% 29.59 in 10.0 mi WNW 6.9 mph - N/A   Clear
3:53 AM 30.9 °F 24.3 °F 21.9 °F 69% 29.60 in 10.0 mi WNW 6.9 mph - N/A   Clear
4:53 AM 30.0 °F 24.1 °F 21.0 °F 69% 29.62 in 10.0 mi NW 5.8 mph - N/A   Clear
5:53 AM 25.0 °F - 19.0 °F 78% 29.65 in 10.0 mi Calm Calm - N/A   Mostly Cloudy
6:53 AM 27.0 °F - 21.0 °F 78% 29.66 in 10.0 mi Calm Calm - N/A   Mostly Cloudy
7:53 AM 30.9 °F 25.2 °F 24.1 °F 76% 29.68 in 10.0 mi WNW 5.8 mph - N/A   Overcast
8:53 AM 35.1 °F 28.6 °F 25.0 °F 67% 29.69 in 10.0 mi WNW 8.1 mph 18.4 mph N/A   Overcast
9:53 AM 37.0 °F 28.1 °F 25.0 °F 62% 29.70 in 10.0 mi WNW 15.0 mph 21.9 mph N/A   Overcast
10:53 AM 37.0 °F 31.6 °F 25.0 °F 62% 29.71 in 10.0 mi WNW 6.9 mph - N/A   Overcast
11:50 AM 37.4 °F 28.9 °F 26.6 °F 65% 29.70 in 1.8 mi NNW 13.8 mph - 0.00 in Snow Light Snow
11:53 AM 36.0 °F 27.1 °F 26.1 °F 67% 29.73 in 2.0 mi NW 13.8 mph - 0.00 in Snow Light Snow
12:05 PM 37.4 °F 29.8 °F 26.6 °F 65% 29.70 in 3.0 mi NW 11.5 mph - 0.00 in Snow Light Snow
12:53 PM 39.0 °F 30.3 °F 25.0 °F 57% 29.73 in 10.0 mi NW 16.1 mph 21.9 mph 0.00 in   Overcast
1:53 PM 41.0 °F 34.3 °F 25.0 °F 53% 29.72 in 10.0 mi NW 11.5 mph 18.4 mph 0.00 in   Mostly Cloudy
2:53 PM 41.0 °F 33.9 °F 24.1 °F 51% 29.72 in 10.0 mi NNW 12.7 mph 19.6 mph N/A   Overcast
3:53 PM 42.1 °F 35.2 °F 23.0 °F 47% 29.72 in 10.0 mi North 12.7 mph - N/A   Overcast
4:53 PM 41.0 °F 38.0 °F 25.0 °F 53% 29.73 in 10.0 mi NW 4.6 mph - N/A   Scattered Clouds
5:53 PM 41.0 °F 35.8 °F 25.0 °F 53% 29.73 in 10.0 mi NW 8.1 mph - N/A   Scattered Clouds
6:53 PM 39.9 °F 36.7 °F 26.1 °F 58% 29.75 in 10.0 mi NNW 4.6 mph - N/A   Overcast
7:53 PM 34.0 °F 31.0 °F 30.9 °F 89% 29.77 in 10.0 mi WNW 3.5 mph - 0.00 in   Partly Cloudy
8:53 PM 34.0 °F 29.8 °F 27.0 °F 75% 29.78 in 10.0 mi NW 4.6 mph - N/A   Partly Cloudy
9:53 PM 30.9 °F 27.5 °F 27.0 °F 85% 29.78 in 9.0 mi NNW 3.5 mph - N/A   Clear
10:53 PM 34.0 °F 28.8 °F 26.1 °F 73% 29.78 in 10.0 mi North 5.8 mph - N/A   Scattered Clouds
11:53 PM 32.0 °F - 27.0 °F 82% 29.78 in 10.0 mi Calm Calm - N/A   Partly Cloudy